EHI
0 0 0 0 0 0 0 0 0 0 0 0 0 0 0 0 0 0 0 0 0 0 0 0 0 0 0 0 0 0 0 0 0 0 0 0 0 0 0 0 0 0 0
0 0 0 0 0 0 0 0 0 0 0 0 0 0 0 0 0 0 0 0 0 0 0 0 0 0 0 0 0 0 0 0 0 0 0 0 0 0 0 0 0 0 0
0 0 0 0 0 0 0 0 0 0 0 0 0 0 0 0 0 0 0 0 0 0 0 0 0 0 0 0 0 0 0 0 0 0 0 0 0 0 0 0 0 0 0
0 0 0 0 0 0 0 0 0 0 0 0 0 0 0 0 0 0 0 0 0 0 0 0 0 0 0 0 0 0 0 0 0 0 0 0 0 0 0 0 0 0 0
0 0 0 0 0 0 0 0 0 0 0 0 0 0 0 0 0 0 0 0 0 0 0 0 0 0 0 0 0 0 0 0 0 0 0 0 0 0 0 0 0 0 0
0 0 0 0 0 0 0 0 0 0 0 0 0 0 0 0 0 0 0 0 0 0 0 0 0 0 0 0 0 0 0 0 0 0 0 0 0 0 0 0 0 0 0
0 0 0 0 0 0 0 0 0 0 0 0 0 0 0 0 0 0 0 0 0 0 0 0 0 0 0 0 0 0 0 0 0 0 0 0 0 0 0 0 0 0 0
0 0 0 0 0 0 0 0 0 0 0 0 0 0 0 0 0 0 0 0 0 0 0 0 0 0 0 0 0 0 0 0 0 0 0 0 0 0 0 0 0 0 0
0 0 0 0 0 0 0 0 0 0 0 0 0 0 0 0 0 0 0 0 0 0 0 0 0 0 0 0 0 0 0 0 0 0 0 0 0 0 0 0 0 0 0
0 0 0 0 0 0 0 0 0 0 0 0 0 0 0 0 0 0 0 0 0 0 0 0 0 0 0 0 0 0 0 0 0 0 0 0 0 0 0 0 0 0 0
0 0 0 0 0 0 0 0 0 0 0 0 0 0 0 0 0 0 0 0 0 0 0 0 0 0 0 0 0 0 0 0 0 0 0 0 0 0 0 0 0 0 0
0 0 0 0 0 0 0 0 0 0 0 0 0 0 0 0 0 0 0 0 0 0 0 0 0 0 0 0 0 0 0 0 0 0 0 0 0 0 0 0 0 0 0
0 0 0 0 0 0 0 0 0 0 0 0 0 0 0 0 0 0 0 0 0 0 0 0 0 0 0 0 0 0 0 0 0 0 0 0 0 0 0 0 0 0 0
0 0 0 0 0 0 0 0 0 0 0 0 0 0 0 0 0 0 0 0 0 0 0 0 0 0 0 0 0 0 0 0 0 0 0 0 0 0 0 0 0 0 0
0 0 0 0 0 0 0 0 0 0 0 0 0 0 0 0 0 0 0 0 0 0 0 0 0 0 0 0 0 0 0 0 0 0 0 0 0 0 0 0 0 0 0
0 0 0 0 0 0 0 0 0 0 0 0 0 0 0 0 0 0 0 0 0 0 0 0 0 0 0 0 0 0 0 0 0 0 0 0 0 0 0 0 0 0 0
0 0 0 0 0 0 0 0 0 0 0 0 0 0 0 0 0 0 0 0 0 0 0 0 0 0 0 0 0 0 0 0 0 0 0 0 0 0 0 0 0 0 0
0 0 0 0 0 0 0 0 0 0 0 0 0 0 0 0 0 0 0 0 0 0 0 0 0 0 0 0 0 0 0 0 0 0 0 0 0 0 0 0 0 0 0
0 0 0 0 0 0 0 0 0 0 0 0 0 0 0 0 0 0 0 0 0 0 0 0 0 0 0 0 0 0 0 0 0 0 0 0 0 0 0 0 0 0 0
0 0 0 0 0 0 0 0 0 0 0 0 0 0 0 0 0 0 0 0 0 0 0 0 0 0 0 0 0 0 0 0 0 0 0 0 0 0 0 0 0 0 0
0 0 0 0 0 0 0 0 0 0 0 0 0 0 0 0 0 0 0 0 0 0 0 0 0 0 0 0 0 0 0 0 0 0 0 0 0 0 0 0 0 0 0
0 0 0 0 0 0 0 0 0 0 0 0 0 0 0 0 0 0 0 0 0 0 0 0 0 0 0 0 0 0 0 0 0 0 0 0 0 0 0 0 0 0 0
0 0 0 0 0 0 0 0 0 0 0 0 0 0 0 0 0 0 0 0 0 0 0 0 0 0 0 0 0 0 0 0 0 0 0 0 0 0 0 0 0 0 0
0 0 0 0 0 0 0 0 0 0 0 0 0 0 0 0 0 0 0 0 0 0 0 0 0 0 0 0 0 0 0 0 0 0 0 0 0 0 0 0 0 0 0
0 0 0 0 0 0 0 0 0 0 0 0 0 0 0 0 0 0 0 0 0 0 0 0 0 0 0 0 0 0 0 0 0 0 0 0 0 0 0 0 0 0 0
0 0 0 0 0 0 0 0 0 0 0 0 0 0 0 0 0 0 0 0 0 0 0 0 0 0 0 0 0 0 0 0 0 0 0 0 0 0 0 0 0 0 0
Wind_Speed
5 5 5 4 5 4 4 4 4 5 5 5 5 5 4 5 5 5 4 10 11 12 12 11 11 10 10 9 9 9 9 9 9 9 9 9 9 9 9 9 10 10 10
6 6 6 6 6 6 6 6 6 6 5 4 5 6 5 5 6 6 5 7 12 12 13 13 12 12 11 11 10 10 9 9 9 9 8 8 8 8 8 8 8 8 8
7 7 7 7 7 7 7 5 6 5 5 5 6 6 5 5 6 7 6 5 6 11 14 15 14 14 13 12 12 11 10 10 9 9 8 8 7 7 7 7 7 7 7
9 7 7 7 7 6 6 6 5 5 5 5 5 4 4 4 6 7 6 6 5 5 10 15 15 15 15 14 13 13 12 11 10 9 8 8 7 6 6 6 5 5 5
10 8 7 6 7 6 6 7 6 5 5 5 5 5 4 4 5 7 7 8 7 6 6 11 14 14 15 15 15 14 13 12 11 10 9 8 7 6 6 5 4 3 3
8 7 6 7 6 6 6 6 6 6 5 5 5 5 4 4 4 6 8 7 7 8 7 7 7 9 14 16 16 15 14 13 12 11 10 9 8 7 6 5 4 3 2
7 7 6 6 6 7 8 8 6 6 6 3 2 2 3 3 5 5 5 6 8 8 8 8 6 5 6 15 16 16 15 14 13 12 11 10 9 8 7 6 5 4 4
6 5 6 6 6 6 7 8 7 5 5 5 5 3 3 3 5 6 5 7 8 7 8 9 7 7 6 5 9 15 16 15 14 13 12 10 9 8 7 7 6 6 5
5 6 7 7 6 7 7 9 8 8 7 5 5 5 5 7 4 3 5 7 7 7 7 7 9 9 9 7 6 12 14 14 14 13 12 11 10 9 9 8 8 7 7
5 6 7 7 7 7 8 8 8 8 7 6 4 5 4 4 4 3 3 4 6 8 8 8 9 10 10 8 10 13 14 13 14 13 12 11 11 10 10 9 9 9 8
4 5 6 6 7 6 7 8 7 8 8 7 6 4 5 3 3 3 5 3 3 5 7 8 7 8 10 9 8 12 16 16 15 14 13 11 10 10 10 10 9 9 9
3 4 4 4 5 5 6 7 7 8 8 9 7 6 5 5 6 6 9 5 4 3 3 4 6 6 7 8 10 16 17 16 15 13 12 10 9 9 9 9 10 10 11
3 4 4 3 3 4 5 5 6 6 7 8 8 7 7 7 4 4 6 5 4 2 1 1 2 3 5 6 8 17 17 17 15 13 11 10 8 7 8 9 11 12 13
3 4 4 3 4 4 4 4 4 4 4 5 6 6 6 6 5 5 4 4 3 2 2 3 0 1 2 4 8 16 11 17 16 14 12 10 8 7 8 11 13 14 15
4 5 5 5 4 4 4 3 2 2 2 2 3 4 4 3 3 3 4 4 5 5 6 4 3 1 2 2 9 7 6 14 15 14 12 11 10 10 12 13 14 15 15
5 6 6 6 6 6 5 4 3 3 3 2 2 2 1 1 1 1 1 2 4 5 4 2 2 1 2 3 8 5 6 14 14 13 12 11 12 13 13 14 15 15 16
7 7 6 6 7 7 6 5 5 5 4 4 4 4 3 3 2 2 1 0 1 1 3 1 2 1 2 3 4 4 3 4 4 10 11 11 12 13 14 14 15 15 16
7 7 7 7 8 8 8 7 7 7 6 6 6 5 5 4 4 3 2 2 1 1 1 2 2 2 1 2 3 4 3 3 3 7 10 12 13 13 14 14 14 15 15
6 7 7 8 8 8 8 8 8 8 8 8 7 6 6 5 5 4 4 3 2 2 2 2 2 2 2 2 2 2 2 1 3 5 8 10 12 13 13 14 14 14 15
7 7 7 7 7 8 8 8 8 8 8 8 8 7 6 6 4 4 4 4 3 3 3 3 2 2 2 2 2 1 1 1 1 2 5 7 9 11 12 13 14 14 15
8 7 7 8 7 7 7 8 7 8 8 8 8 7 7 7 7 5 4 3 3 3 3 3 2 2 1 1 1 1 1 0 1 1 1 2 3 3 5 10 13 15 15
7 7 8 8 8 8 12 13 9 7 7 8 7 7 8 9 10 11 10 8 6 4 3 2 1 1 1 1 1 1 1 1 2 1 1 3 3 5 5 5 12 15 15
6 7 7 7 8 10 14 14 13 8 7 6 6 6 5 6 8 6 8 10 9 9 6 2 1 1 0 0 1 1 1 2 3 2 1 4 3 5 5 7 14 15 15
5 5 6 6 6 8 12 12 12 7 6 6 5 5 4 4 4 5 5 5 5 5 4 2 1 1 2 2 3 3 3 2 2 3 3 3 3 4 5 5 12 14 12
4 4 4 5 5 5 9 10 9 4 4 5 4 4 3 3 6 7 5 4 4 4 5 6 4 3 4 4 3 1 1 0 2 3 2 3 3 3 4 3 5 7 7
3 3 3 3 3 3 6 8 7 2 3 2 3 4 5 4 5 6 2 2 2 3 3 4 5 6 5 6 7 1 3 3 2 3 2 2 2 2 5 3 2 3 5
Wind_Direction
195 197 202 202 203 197 197 202 212 220 228 237 239 235 223 194 190 188 192 187 179 176 176 178 178 174 170 165 159 153 148 142 136 131 125 119 114 109 104 98 93 89 86
196 195 201 204 208 206 205 205 210 217 224 222 228 225 218 196 195 193 195 193 188 184 185 187 188 186 182 178 172 167 163 157 151 146 139 133 127 121 114 107 100 94 89
200 196 201 206 209 207 206 208 214 218 226 224 228 224 214 201 195 198 196 197 195 193 192 195 196 194 192 189 183 179 176 171 166 161 155 148 142 135 127 119 111 103 95
206 201 205 210 206 204 205 208 210 214 223 222 223 223 215 204 201 202 200 200 198 198 202 203 202 201 199 197 193 188 184 181 178 174 170 165 160 156 149 140 129 118 107
210 208 214 213 200 204 207 210 210 205 216 221 222 224 220 212 205 204 205 206 205 201 200 209 206 204 204 204 201 196 191 189 188 186 183 180 178 176 173 167 159 151 137
213 213 221 221 207 209 214 211 210 208 210 210 218 226 228 227 215 210 208 208 210 209 204 206 203 206 204 206 208 204 198 196 197 197 195 194 194 196 197 194 194 196 199
217 215 224 223 215 219 222 215 211 214 220 180 180 251 277 249 236 226 214 212 214 212 206 207 200 195 203 207 210 211 207 204 204 204 204 204 206 208 211 216 222 232 239
227 219 220 224 220 224 229 222 212 212 212 180 176 184 265 289 256 226 209 215 217 210 211 209 202 197 193 193 209 212 214 212 211 210 211 212 213 214 222 230 239 249 257
247 238 232 229 225 220 228 226 217 215 221 206 190 174 191 228 252 268 230 222 213 210 212 206 205 201 197 193 196 212 212 217 218 216 216 218 219 223 232 241 248 255 262
265 255 247 239 235 229 229 229 222 219 218 215 212 222 214 187 193 255 263 233 217 215 212 210 207 205 202 196 198 201 203 209 217 222 224 224 227 232 241 249 256 263 269
281 270 258 251 245 239 236 233 226 221 218 218 204 201 221 232 217 220 259 257 242 229 217 213 210 208 204 198 194 198 199 204 213 224 230 232 238 245 253 261 268 276 281
301 302 287 268 258 251 246 242 235 227 225 224 218 202 193 197 205 210 235 239 237 245 230 220 214 208 200 194 194 194 196 202 209 218 228 235 246 259 272 283 287 289 287
318 320 319 304 287 274 267 259 249 241 233 229 227 223 221 226 211 208 225 232 229 243 260 251 252 223 200 189 190 188 194 197 203 209 219 231 246 267 283 289 291 291 290
319 326 333 331 320 310 300 286 270 261 251 242 238 232 231 233 226 214 211 206 225 241 248 242 302 256 195 181 186 179 189 191 196 203 212 226 242 261 273 277 281 283 285
347 355 358 359 354 349 339 327 317 306 286 268 261 247 240 242 230 222 210 200 206 229 238 211 202 182 152 155 177 169 166 190 196 202 212 225 241 255 263 268 273 275 278
6 7 10 10 10 11 10 15 12 6 23 15 6 9 355 335 322 294 244 233 224 225 236 182 172 142 147 155 173 155 173 188 201 209 221 234 246 255 261 265 268 271 274
17 18 17 21 22 20 19 29 30 29 41 38 34 44 44 41 49 36 33 8 274 228 235 111 92 91 131 147 148 136 149 176 206 226 237 245 255 261 266 267 268 271 273
25 25 27 32 31 30 30 36 39 38 44 44 39 48 47 49 50 39 41 35 13 29 165 165 127 125 131 154 142 148 161 182 193 235 247 255 261 265 268 270 272 272 273
34 34 37 38 35 34 35 38 45 48 50 48 45 49 44 49 49 41 40 37 28 29 48 112 111 97 95 120 128 151 170 173 211 238 253 261 267 271 273 274 275 277 278
43 40 41 42 42 43 42 42 50 54 56 53 50 51 49 53 59 56 51 42 42 47 50 74 89 88 92 101 118 148 174 181 238 254 266 270 272 277 281 282 283 285 283
50 46 47 44 42 49 50 51 52 58 59 57 50 46 47 56 64 67 67 53 50 56 59 64 69 81 91 101 136 129 175 145 278 261 275 276 283 282 285 284 284 281 277
51 50 48 48 49 53 59 63 66 58 56 55 50 42 40 41 48 57 66 64 62 63 57 55 51 72 78 83 95 122 132 102 291 276 249 265 255 265 263 254 269 272 270
58 54 50 49 52 56 61 65 68 66 60 55 50 43 42 41 44 37 44 44 39 42 52 81 83 69 80 145 140 151 188 200 228 248 260 273 251 262 262 266 275 276 274
61 57 52 47 48 56 64 68 71 60 57 50 47 46 44 22 34 52 46 36 26 18 28 61 128 188 203 204 193 195 207 230 259 251 202 261 273 263 271 270 281 280 276
71 63 56 49 44 42 64 71 71 55 51 38 26 31 41 11 26 48 53 34 18 358 14 25 18 333 304 295 261 169 177 259 291 274 210 229 278 290 281 276 287 293 296
89 82 65 47 41 24 55 71 77 67 52 27 12 5 8 14 15 31 72 40 353 321 337 351 354 350 349 334 328 266 184 190 225 278 261 228 277 328 313 287 261 269 281